Terminal Aerodrome Forecast
Issued by NWS Melbourne, FL

Home | Current Version | Previous Version | Text Only | Print | Product List | Glossary On
Versions: 1 2 3 4 5 6 7 8 9 10 11 12 13 14 15
138
FTUS42 KMLB 112326
TAFDAB
TAF
KDAB 112326Z 1200/1224 20004KT P6SM FEW250
     FM121500 23010KT P6SM SKC=

USA.gov is the U.S. government's official web portal to all federal, state and local government web resources and services.